User: anonymous   Login
Location: Toronto
(43.6672°N, 79.4170°W)
Time: 17:27:06
(UTC-04:00)
Language:

ISS - Orbit

View from above orbital plane
View from above orbital plane
View from above satellite
View from above satellite

Ground track
Ground track

The orbit data is extracted from the following two-line orbital elements,

1 25544U 98067A   15212.49478844  .00004435  00000-0  72061-4 0  9995
2 25544 051.6433 222.7909 0001085 022.3302 092.1650 15.54943961954931
Epoch (UTC): 31 July 2015 11:52:29
Eccentricity: 0.0001085
inclination: 51.6433°
perigee height: 401 km
apogee height: 403 km
right ascension of ascending node: 222.7909°
argument of perigee: 22.3302°
revolutions per day: 15.54943961
mean anomaly at epoch: 92.1650°
orbit number at epoch: 95493

The dashed part of the orbit path shows where the satellite is in the earth's shadow,  

DLR